Mora, MN

12:33 PM CDT on August 19, 2017 (GMT -0500)
Mora Municipal

Weather History for KJMR - July, 2013

Change the Weather History Date:

Tuesday, July 23, 2013

  Actual Average Record
Temperature  
Mean Temperature 63 °F -  
Max Temperature 73 °F 81 °F 108 °F (1934)
Min Temperature 53 °F 55 °F 42 °F (1978)
Degree Days  
Heating Degree Days 2    
Growing Degree Days 13 (Base 50)    
Moisture  
Dew Point 50 °F    
Average Humidity 65    
Maximum Humidity 88    
Minimum Humidity 41    
Precipitation  
Precipitation 0.00 in - - ()
Sea Level Pressure  
Sea Level Pressure 30.00 in    
Wind  
Wind Speed 3 mph (North)    
Max Wind Speed 7 mph    
Max Gust Speed -    
Visibility 10 miles    
Events      
Averages and records for this station are not official NWS values.
T = Trace of Precipitation, MM = Missing Value Source: NWS Daily Summary

Daily Weather History Graph

Daily Weather History Graph

Search for Another Location

Airport or City:

Trip Planner

Search our weather history database for the weather conditions in past years. The results will help you decide how hot, cold, wet, or windy it might be!

Date:

Astronomy

Jul. 23, 2013 Rise Set
Actual Time 5:45 AM CDT 8:52 PM CDT
Civil Twilight 5:10 AM CDT 9:28 PM CDT
Nautical Twilight 4:24 AM CDT 10:14 PM CDT
Astronomical Twilight 3:27 AM CDT 11:09 PM CDT
Moon 9:11 PM CDT (7/23) 7:02 AM CDT (7/23)
Length of Visible Light 16h 18m
Length of Day
15h 06m
Full, 99% of the Moon is Illuminated
Jul 23
Full
Jul 29
Last Quarter
Aug 6
New
Aug 14
First Quarter
Aug 20
Full

Hourly Weather History & Observations

Time (CDT) Temp. Dew Point Humidity Pressure Visibility Wind Dir Wind Speed Gust Speed Precip Events Conditions
12:14 AM 60.8 °F 50.0 °F 68% 29.89 in 10.0 mi NNW 4.6 mph - N/A   Clear
12:34 AM 59.0 °F 50.0 °F 72% 29.89 in 10.0 mi NW 3.5 mph - N/A   Clear
12:54 AM 59.0 °F 50.0 °F 72% 29.90 in 10.0 mi NW 3.5 mph - N/A   Clear
1:14 AM 57.2 °F 50.0 °F 77% 29.90 in 10.0 mi NW 3.5 mph - N/A   Clear
1:34 AM 55.4 °F 50.0 °F 82% 29.90 in 10.0 mi NNW 4.6 mph - N/A   Clear
1:54 AM 55.4 °F 50.0 °F 82% 29.90 in 10.0 mi NNW 4.6 mph - N/A   Clear
2:14 AM 55.4 °F 50.0 °F 82% 29.90 in 10.0 mi NNW 4.6 mph - N/A   Clear
2:34 AM 55.4 °F 50.0 °F 82% 29.90 in 10.0 mi NNW 3.5 mph - N/A   Clear
2:55 AM 55.4 °F 50.0 °F 82% 29.90 in 10.0 mi NNW 6.9 mph - N/A   Clear
3:14 AM 55.4 °F 51.8 °F 88% 29.91 in 10.0 mi West 4.6 mph - N/A   Clear
3:34 AM 55.4 °F 50.0 °F 82% 29.92 in 10.0 mi NW 4.6 mph - N/A   Clear
3:55 AM 55.4 °F 50.0 °F 82% 29.92 in 10.0 mi Calm Calm - N/A   Clear
4:14 AM 55.4 °F 50.0 °F 82% 29.92 in 10.0 mi Calm Calm - N/A   Clear
4:35 AM 55.4 °F 50.0 °F 82% 29.93 in 10.0 mi North 3.5 mph - N/A   Clear
4:54 AM 55.4 °F 50.0 °F 82% 29.93 in 10.0 mi North 3.5 mph - N/A   Clear
5:14 AM 55.4 °F 50.0 °F 82% 29.94 in 10.0 mi North 3.5 mph - N/A   Clear
5:34 AM 55.4 °F 50.0 °F 82% 29.95 in 10.0 mi Calm Calm - N/A   Clear
5:54 AM 55.4 °F 50.0 °F 82% 29.96 in 10.0 mi Calm Calm - N/A   Clear
6:14 AM 53.6 °F 50.0 °F 88% 29.96 in 10.0 mi Calm Calm - N/A   Clear
6:35 AM 55.4 °F 50.0 °F 82% 29.97 in 10.0 mi Calm Calm - N/A   Clear
6:54 AM 55.4 °F 50.0 °F 82% 29.97 in 10.0 mi North 3.5 mph - N/A   Clear
7:14 AM 55.4 °F 50.0 °F 82% 29.97 in 10.0 mi North 4.6 mph - N/A   Clear
7:34 AM 55.4 °F 50.0 °F 82% 29.98 in 10.0 mi North 5.8 mph - N/A   Clear
7:54 AM 59.0 °F 48.2 °F 67% 30.00 in 10.0 mi North 5.8 mph - N/A   Clear
8:14 AM 59.0 °F 48.2 °F 67% 30.01 in 10.0 mi North 3.5 mph - N/A   Clear
8:34 AM 59.0 °F 46.4 °F 63% 30.01 in 10.0 mi NNE 4.6 mph - N/A   Clear
8:54 AM 60.8 °F 48.2 °F 63% 30.02 in 10.0 mi North 3.5 mph - N/A   Clear
9:14 AM 62.6 °F 50.0 °F 63% 30.03 in 10.0 mi North 4.6 mph - N/A   Clear
9:34 AM 62.6 °F 50.0 °F 63% 30.02 in 10.0 mi North 6.9 mph - N/A   Clear
9:55 AM 62.6 °F 50.0 °F 63% 30.02 in 10.0 mi North 5.8 mph - N/A   Scattered Clouds
10:14 AM 64.4 °F 50.0 °F 59% 30.03 in 10.0 mi NE 5.8 mph - N/A   Clear
10:35 AM 64.4 °F 50.0 °F 59% 30.04 in 10.0 mi NNE 6.9 mph - N/A   Clear
10:54 AM 64.4 °F 48.2 °F 56% 30.04 in 10.0 mi NNW 5.8 mph - N/A   Clear
11:14 AM 64.4 °F 48.2 °F 56% 30.04 in 10.0 mi NNE 5.8 mph - N/A   Clear
11:34 AM 64.4 °F 48.2 °F 56% 30.04 in 10.0 mi NNE 3.5 mph - N/A   Clear
11:54 AM 68.0 °F 48.2 °F 49% 30.05 in 10.0 mi North 6.9 mph - N/A   Clear
12:14 PM 66.2 °F 48.2 °F 52% 30.04 in 10.0 mi NNE 5.8 mph - N/A   Clear
12:34 PM 68.0 °F 48.2 °F 49% 30.04 in 10.0 mi ENE 3.5 mph - N/A   Clear
12:54 PM 68.0 °F 48.2 °F 49% 30.04 in 10.0 mi NE 6.9 mph - N/A   Clear
1:14 PM 69.8 °F 50.0 °F 49% 30.04 in 10.0 mi NNE 4.6 mph - N/A   Clear
1:34 PM 69.8 °F 48.2 °F 46% 30.03 in 10.0 mi ENE 5.8 mph - N/A   Clear
1:54 PM 69.8 °F 50.0 °F 49% 30.04 in 10.0 mi ENE 5.8 mph - N/A   Scattered Clouds
2:14 PM 69.8 °F 50.0 °F 49% 30.03 in 10.0 mi NNE 3.5 mph - N/A   Scattered Clouds
2:34 PM 69.8 °F 48.2 °F 46% 30.03 in 10.0 mi East 5.8 mph - N/A   Scattered Clouds
2:54 PM 69.8 °F 50.0 °F 49% 30.03 in 10.0 mi NE 5.8 mph - N/A   Scattered Clouds
3:14 PM 69.8 °F 46.4 °F 43% 30.03 in 10.0 mi NNE 5.8 mph - N/A   Scattered Clouds
3:34 PM 71.6 °F 50.0 °F 46% 30.03 in 10.0 mi NNW 3.5 mph - N/A   Clear
3:54 PM 71.6 °F 50.0 °F 46% 30.03 in 10.0 mi East 3.5 mph - N/A   Mostly Cloudy
4:14 PM 69.8 °F 48.2 °F 46% 30.03 in 10.0 mi North 3.5 mph - N/A   Mostly Cloudy
4:34 PM 73.4 °F 48.2 °F 41% 30.03 in 10.0 mi NNW 3.5 mph - N/A   Mostly Cloudy
4:54 PM 69.8 °F 48.2 °F 46% 30.02 in 10.0 mi NE 3.5 mph - N/A   Scattered Clouds
5:14 PM 69.8 °F 46.4 °F 43% 30.02 in 10.0 mi Calm Calm - N/A   Clear
5:34 PM 69.8 °F 46.4 °F 43% 30.02 in 10.0 mi Calm Calm - N/A   Clear
5:54 PM 69.8 °F 46.4 °F 43% 30.02 in 10.0 mi Calm Calm - N/A   Clear
6:14 PM 69.8 °F 50.0 °F 49% 30.02 in 10.0 mi Calm Calm - N/A   Clear
6:34 PM 69.8 °F 50.0 °F 49% 30.02 in 10.0 mi Calm Calm - N/A   Clear
6:54 PM 69.8 °F 51.8 °F 53% 30.02 in 10.0 mi Calm Calm - N/A   Scattered Clouds
7:14 PM 69.8 °F 50.0 °F 49% 30.02 in 10.0 mi Calm Calm - N/A   Scattered Clouds
7:34 PM 69.8 °F 50.0 °F 49% 30.03 in 10.0 mi Calm Calm - N/A   Clear
7:54 PM 68.0 °F 51.8 °F 56% 30.02 in 10.0 mi Calm Calm - N/A   Mostly Cloudy
8:14 PM 66.2 °F 50.0 °F 56% 30.02 in 10.0 mi Calm Calm - N/A   Mostly Cloudy
8:34 PM 64.4 °F 51.8 °F 64% 30.03 in 10.0 mi Calm Calm - N/A   Overcast
8:54 PM 64.4 °F 53.6 °F 68% 30.03 in 10.0 mi Calm Calm - N/A   Mostly Cloudy
9:14 PM 62.6 °F 53.6 °F 72% 30.03 in 10.0 mi Calm Calm - N/A   Mostly Cloudy
9:35 PM 60.8 °F 53.6 °F 77% 30.04 in 10.0 mi Calm Calm - N/A   Overcast
9:54 PM 60.8 °F 53.6 °F 77% 30.05 in 10.0 mi Calm Calm - N/A   Overcast
10:15 PM 60.8 °F 51.8 °F 72% 30.05 in 10.0 mi Calm Calm - N/A   Scattered Clouds
10:34 PM 60.8 °F 51.8 °F 72% 30.05 in 10.0 mi Calm Calm - N/A   Clear
10:54 PM 59.0 °F 51.8 °F 77% 30.05 in 10.0 mi Calm Calm - N/A   Clear
11:15 PM 55.4 °F 51.8 °F 88% 30.05 in 10.0 mi Calm Calm - N/A   Clear
11:34 PM 55.4 °F 51.8 °F 88% 30.05 in 10.0 mi Calm Calm - N/A   Scattered Clouds
11:54 PM 55.4 °F 51.8 °F 88% 30.05 in 10.0 mi Calm Calm - N/A   Mostly Cloudy